Tracking 30744 objects as of 23-Jun-2025
HD Live streaming from Space Station
objects crossing your sky now

STARLINK 1056

Track STARLINK 1056 now!
10-day predictions
STARLINK 1056 is classified as:


NORAD ID: 44761
Int'l Code: 2019-074BA
Perigee: 416.9 km
Apogee: 428.3 km
Inclination: 53.0 °
Period: 92.9 minutes
Semi major axis: 6793 km
RCS: Unknown
Launch date: November 11, 2019
Source: United States (US)
Launch site: AIR FORCE EASTERN TEST RANGE (AFETR)
Your satellite tracking list
Your tracking list is empty




NASA's NSSDC Master Catalog

Two Line Element Set (TLE):
1 44761U 19074BA  25173.66668981  .00093090  00000-0  15955-2 0  9999
2 44761  53.0499 302.6085 0008360 267.1433 195.8431 15.50430013  5863
Source of the keplerian elements: AFSPC